ZHONGXING-19

Last updated on Sun Sep 20 2026 00:03:00 GMT+0000 (Coordinated Universal Time)

1 54230U 22148A 26262.51294612 -.00000085 00000+0 00000+0 0 9991 2 54230 0.0185 172.2625 0004551 7.7006 166.3045 1.00272949 14329
UTC large
Height (km)
Speed (km/s)
/
Latitude / Longitude
Inclination (degrees)
Orbital Period (minutes)
Azimuth
Elevation
Range (km)
Doppler Factor

Next 0 passes for location: London (51.5072 / 0.1276)

No passes found over London.
ZHONGXING-19